METEOR 2-8

Satellite information

Favourite Embed

Satellite Type and Status

PAYLOADIN ORBIT

Key statistics

Satellite METEOR 2-8 at a glance.

Uptime

15969

Days in orbit

Revolutions

≈ 13.9

Per day

Orbit

LEO

Low Earth Orbit

Inclination

82.5

Latest

Satellite identification and parameters

Extended collection of information and parameters for METEOR 2-8.

Object identification

Identified? True

Debris? False

Object name: METEOR 2-8

International designator: 1982-025A

Object number (NORAD): 13113

Object ID (CCSDS): 13113

Country: COMMONWEALTH OF INDEPENDENT STATES (CIS)

Current information (Y/N): Y

RCS size: LARGE

Orbital parameters

Period: 103.928 minutes

Inclination: 82.5397 deg

SMA: 7322.298 km

Apoapsis: 958.091 km

Periapsis: 930.235 km

RAAN: 247.1632 deg

Eccentricy: 0.00190218

Argument of periapsis: 45.8038 deg

Mean anomaly: 65.9893 deg

Mean motion: 13.85580179 rev/day

Mean motion (dot): 0.00000087 rev/day2

B* drag term: 0.00006269699 1/REarth

Two-line elements (TLE)

Creation date: Dec. 12, 2025, 10:14 a.m.

Reference frame: TEME

Reference center: EARTH

Epoch: Dec. 12, 2025, 5:24 a.m. UTC

TLE line 0: 0 METEOR 2-8

TLE line 1: 1 13113U 82025A 25346.22519836 .00000087 00000-0 62697-4 0 9991

TLE line 2: 2 13113 82.5397 247.1632 0019022 45.8038 65.9893 13.85580179209752

Live tracking on map

Real-time ground track for satellite METEOR 2-8.

In-orbit conjunctions

A list of the most updated potential collisions computed for object METEOR 2-8.

Target Orbit TCA Probability of collision Miss distance Type
SL-16 DEB LEO 2025-04-18 14:23:01 0.0007526098 268.0 (m) DEBRIS
SL-8 R/B LEO 2025-04-10 08:56:25 0.004558347 104.0 (m) ROCKET BODY

Associated space launch

Second generation soviet meteorological satellite

METEOR 2-8 was lifted into orbit during the mission ‘Tsiklon-3 | Meteor-2 8’, on board a Tsiklon-3 space rocket.

The launch took place on March 25, 1982, 9:50 a.m. from 32/1.

For more information about the launch, click the button.

Launch to space Tsiklon-3 | Meteor-2 8
Tsiklon-3 | Meteor-2 8

Agency: N/A

Status: Launch Successful

Launch date: March 25, 1982, 9:50 a.m. UTC

Rocket: Tsiklon-3

Launch pad: 32/1

Location: Plesetsk Cosmodrome, Russian Federation

...

Latest news about this satellite

There are no fresh news available about this satellite. Check back as we update our databases every day.


Newsletter sign-up

Weekly statistics, charts and insights to help you stay on top of the space industry.